Weather History for KMWH - December, 2013

Change the Weather History Date:

Saturday, December 7, 2013

  Actual Average Record
Temperature  
Mean Temperature 11 °F 30 °F  
Max Temperature 22 °F 36 °F 56 °F (1979)
Min Temperature 0 °F 24 °F 0 °F (2013)
Degree Days  
Heating Degree Days 54 35  
Month to date heating degree days 285 240  
Since 1 July heating degree days 1720 1701  
Cooling Degree Days 0 0  
Month to date cooling degree days 0 0  
Year to date cooling degree days 948 615  
Moisture  
Dew Point -6 °F    
Average Humidity 47    
Maximum Humidity 69    
Minimum Humidity 25    
Precipitation  
Precipitation 0.00 in 0.03 in 0.43 in (1997)
Month to date precipitation T 0.25  
Year to date precipitation 5.86 7.92  
Sea Level Pressure  
Sea Level Pressure 30.38 in    
Wind  
Wind Speed 7 mph (North)    
Max Wind Speed 17 mph    
Max Gust Speed 21 mph    
Visibility 10 miles    
Events      
T = Trace of Precipitation, MM = Missing Value Source: NWS Daily Summary

Daily Weather History Graph

Daily Weather History Graph

Search for Another Location

Airport or City:

Trip Planner

Search our weather history database for the weather conditions in past years. The results will help you decide how hot, cold, wet, or windy it might be!

Date:

Astronomy

Dec. 07, 2013 Rise Set
Actual Time 7:30 AM PST 4:07 PM PST
Civil Twilight 6:54 AM PST 4:42 PM PST
Nautical Twilight 6:16 AM PST 5:21 PM PST
Astronomical Twilight 5:39 AM PST 5:58 PM PST
Moon 11:03 AM PST (12/7) 10:11 PM PST (12/7)
Length of Visible Light 9h 47m
Length of Day
8h 37m
Waxing Crescent, 30% of the Moon is Illuminated
Dec 7
Waxing Crescent
Dec 9
First Quarter
Dec 17
Full
Dec 25
Last Quarter
Jan 1
New

Hourly Weather History & Observations

Time (PST) Temp. Windchill Dew Point Humidity Pressure Visibility Wind Dir Wind Speed Gust Speed Precip Events Conditions
12:52 AM 12.0 °F -4.0 °F -6.0 °F 44% 30.30 in 10.0 mi North 15.0 mph - N/A   Partly Cloudy
1:52 AM 9.0 °F -5.9 °F -5.1 °F 53% 30.31 in 10.0 mi North 11.5 mph - N/A   Clear
2:52 AM 8.1 °F -5.3 °F -4.0 °F 58% 30.32 in 10.0 mi North 9.2 mph - N/A   Clear
3:52 AM 7.0 °F -6.6 °F -4.0 °F 61% 30.32 in 10.0 mi North 9.2 mph - N/A   Clear
4:52 AM 6.1 °F -5.6 °F -5.1 °F 60% 30.32 in 10.0 mi North 6.9 mph - N/A   Clear
5:52 AM 3.9 °F -8.2 °F -5.1 °F 66% 30.33 in 10.0 mi North 6.9 mph - N/A   Clear
6:52 AM 6.1 °F -7.8 °F -4.0 °F 63% 30.35 in 10.0 mi North 9.2 mph - N/A   Clear
7:52 AM 7.0 °F -4.5 °F -2.9 °F 64% 30.36 in 10.0 mi North 6.9 mph - N/A   Clear
8:52 AM 10.9 °F -2.6 °F -2.0 °F 56% 30.38 in 10.0 mi North 10.4 mph - N/A   Clear
9:52 AM 16.0 °F 2.3 °F -2.9 °F 43% 30.38 in 10.0 mi North 12.7 mph - N/A   Clear
10:52 AM 18.0 °F 3.6 °F -5.1 °F 36% 30.38 in 10.0 mi North 15.0 mph - N/A   Clear
11:52 AM 19.9 °F 7.3 °F -6.0 °F 32% 30.37 in 10.0 mi North 12.7 mph - N/A   Clear
12:52 PM 21.0 °F 9.9 °F -6.0 °F 30% 30.36 in 10.0 mi North 10.4 mph - N/A   Clear
1:52 PM 21.9 °F 13.4 °F -7.1 °F 28% 30.35 in 10.0 mi NNW 6.9 mph - N/A   Clear
2:52 PM 21.0 °F 14.6 °F -9.0 °F 26% 30.36 in 10.0 mi NNE 4.6 mph - N/A   Clear
3:52 PM 19.9 °F - -9.0 °F 27% 30.38 in 10.0 mi Calm Calm - N/A   Clear
4:52 PM 17.1 °F 11.7 °F -9.0 °F 31% 30.40 in 10.0 mi NW 3.5 mph - N/A   Clear
5:52 PM 12.0 °F - -9.0 °F 39% 30.41 in 10.0 mi Calm Calm - N/A   Clear
6:52 PM 7.0 °F -1.7 °F -9.0 °F 48% 30.44 in 10.0 mi NNW 4.6 mph - N/A   Clear
7:52 PM 6.1 °F - -9.9 °F 48% 30.43 in 10.0 mi Calm Calm - N/A   Clear
8:52 PM 5.0 °F - -9.9 °F 50% 30.44 in 10.0 mi Calm Calm - N/A   Clear
9:52 PM 3.0 °F -8.0 °F -7.1 °F 63% 30.44 in 10.0 mi SSE 5.8 mph - N/A   Clear
10:52 PM 1.9 °F -7.6 °F -7.1 °F 66% 30.44 in 10.0 mi SE 4.6 mph - N/A   Clear
11:52 PM 1.9 °F - -6.0 °F 69% 30.45 in 10.0 mi Calm Calm - N/A   Clear